Regional Weather Roundup
Issued by NWS

Home | Current Version | Previous Version | Graphics & Text | Print | Product List | Glossary On
Versions: 1 2 3 4 5 6 7 8 9 10 11 12 13 14 15 16 17 18 19 20 21 22 23 24 25 26 27 28 29 30 31 32 33 34 35 36 37 38 39 40 41 42 43 44 45 46 47 48 49 50
411
ASUS45 KCYS 190410
RWRWY

WYOMING REGIONAL WEATHER ROUNDUP
NATIONAL WEATHER SERVICE CHEYENNE WY
900 PM MST SAT FEB 18 2017

NOTE:  "FAIR" INDICATES FEW OR NO CLOUDS BELOW 12,000 FEET
WITH NO SIGNIFICANT WEATHER AND/OR OBSTRUCTIONS TO VISIBILITY.

WYZ001-190500-
YELLOWSTONE NATIONAL PARK

CITY           SKY/WX    TMP DP  RH WIND       PRES   REMARKS
LK YELLOWSTONE   N/A     31  30  96 CALM      29.63S
W YELLOWSTONE  NOT AVBL

$$
WYZ002>013-054>058-071-098>099-190500-
NORTHERN WYOMING

CITY           SKY/WX    TMP DP  RH WIND       PRES   REMARKS
JACKSON        CLOUDY    36  34  93 SW10      29.63F WCI  28
CODY           CLOUDY    36  30  79 S3        29.55F
GREYBULL       FAIR      45  32  60 S10       29.55R
WORLAND        FAIR      39  33  79 S9        29.56S WCI  33
SHERIDAN       FAIR      34  30  85 S6        29.53F WCI  29
BUFFALO        FAIR      49  28  44 SW9       29.56S
GILLETTE       FAIR      51  32  48 SW20G29   29.58R
HULETT         CLOUDY    52  32  46 S6        29.62S
NEWCASTLE      FAIR      50  30  46 CALM      29.65F

$$
WYZ014>020-022>026-101>103-190500-
CENTRAL WYOMING

CITY           SKY/WX    TMP DP  RH WIND       PRES   REMARKS
BIG PINEY      CLOUDY    32  30  92 CALM      29.70R
PINEDALE       CLOUDY    32  32 100 CALM      29.71S
DUBOIS         CLOUDY    34  28  80 W8        29.62R WCI  27
LANDER         FAIR      41  27  57 VRB3      29.58S
RIVERTON       FAIR      37  31  78 S8        29.60F WCI  31
CASPER         FAIR      44  32  62 S24G31    29.66S
DOUGLAS        CLOUDY    48  29  47 SW7       29.67S

$$
WYZ021-027>030-104>119-190500-
SOUTHERN WYOMING

CITY           SKY/WX    TMP DP  RH WIND       PRES   REMARKS
EVANSTON       CLOUDY    34  28  79 E8        29.67S WCI  27
KEMMERER         N/A     34  30  86 CALM      29.69S
FORT BRIDGER   FAIR      32  32 100 W5        29.71R WCI  27
ROCK SPRINGS   FAIR      37  30  75 SE10      29.69S WCI  30
DIXON            N/A     36  32  87 E3        29.79S
RAWLINS        FAIR      36  30  79 CALM      29.75S
SARATOGA       FAIR      32  32 100 CALM      29.77R
LARAMIE        FAIR      34  27  75 NE9       29.74R WCI  27
CHEYENNE       FAIR      37  21  52 W5        29.70R WCI  33
TORRINGTON     FAIR      47  26  44 SE3       29.66R
PINE BLUFFS    FAIR      48  19  32 S17G23    29.69R

$$




USA.gov is the U.S. government's official web portal to all federal, state and local government web resources and services.